Location: ??
(35.5653°N, 139.6194°E)
Time: 18:53:26
(UTC+00:00)

Cosmos 1825 - Pass Details

Date: 20 November 2019
Orbit: 504 x 508 km, 82.5° (Epoch: 11 December)

Event Time Altitude Azimuth Distance (km) Brightness Sun altitude
Rises 20:43:40 0° 228° (SW) 2,592 5.5 -8.1°
Reaches altitude 10° 20:46:45 10° 256° (WSW) 1,713 4.3 -7.6°
Maximum altitude 20:48:35 13° 286° (WNW) 1,524 3.9 -7.2°
Drops below altitude 10° 20:50:27 10° 316° (NW) 1,720 4.3 -6.8°
Sets 20:53:34 0° 344° (NNW) 2,611 5.4 -6.2°
